Date,TemperatureHighF,TemperatureAvgF,TemperatureLowF,DewpointHighF,DewpointAvgF,DewpointLowF,HumidityHigh,HumidityAvg,HumidityLow,PressureMaxIn,PressureMinIn,WindSpeedMaxMPH,WindSpeedAvgMPH,GustSpeedMaxMPH,PrecipitationSumIn
2013-1-1,80.5,71.4,63.4,67.5,60.9,55.9,90,71,52,30.10,29.90,28,5,28,0.00
2013-1-2,80.8,71.9,65.7,66.6,59.9,54.4,75,66,47,30.02,29.91,26,6,26,0.00
2013-1-3,81.2,72.0,64.8,67.2,59.1,46.7,74,64,49,30.02,29.91,25,6,25,0.00
2013-1-4,80.1,72.6,67.5,63.7,60.4,57.1,81,66,54,30.05,29.88,37,11,37,0.00
2013-1-5,78.9,71.7,64.3,67.0,57.9,49.8,85,62,47,30.09,29.96,26,5,26,0.00
2013-1-6,77.3,70.2,62.6,65.1,59.3,50.8,81,68,58,30.11,29.98,17,3,17,0.00
2013-1-7,75.6,66.8,61.9,60.9,57.7,51.8,83,73,58,30.06,29.92,25,6,25,0.00
2013-1-8,80.0,70.4,62.1,64.0,58.3,46.2,80,66,51,29.98,29.84,25,6,25,0.00
2013-1-9,78.9,70.5,63.9,64.6,60.8,56.3,81,72,56,29.99,29.86,21,4,21,0.00
2013-1-10,78.8,69.9,63.1,66.5,60.2,53.4,82,72,56,29.99,29.87,24,6,24,0.00
2013-1-11,78.8,70.1,63.2,65.5,60.8,54.0,82,73,59,29.95,29.84,24,5,24,0.02
2013-1-12,76.3,68.7,59.8,65.9,59.3,50.8,84,72,55,29.99,29.89,15,2,15,0.00
2013-1-13,78.4,69.9,62.1,66.8,60.4,54.4,85,72,60,30.00,29.90,12,2,0,0.00
2013-1-14,78.0,71.0,62.4,68.3,63.5,54.9,92,78,68,30.01,29.86,14,2,14,0.01
2013-1-15,74.8,69.8,67.3,69.2,67.2,66.0,97,92,81,29.95,29.85,11,1,0,0.31
2013-1-16,76.0,69.6,63.1,66.9,63.6,58.4,95,82,63,29.96,29.83,12,2,0,0.02
2013-1-17,75.6,67.3,57.9,62.2,58.7,52.2,89,75,59,29.94,29.82,13,2,0,0.00
2013-1-18,75.3,67.7,58.5,63.1,58.6,55.3,89,73,55,29.96,29.82,13,2,13,0.00
2013-1-19,80.4,69.6,60.3,57.8,53.8,40.9,80,60,27,30.00,29.86,23,6,23,0.00
2013-1-20,78.9,69.0,63.2,58.0,55.0,47.6,76,62,42,30.05,29.92,25,8,25,0.00
2013-1-21,78.2,69.5,63.2,64.3,57.4,53.0,76,66,46,30.09,29.99,28,8,28,0.00
2013-1-22,79.3,70.4,64.7,62.8,58.3,52.9,77,66,44,30.12,29.98,26,6,26,0.00
2013-1-23,78.6,69.6,63.4,64.3,60.5,54.3,83,73,56,30.06,29.97,30,4,30,0.00
2013-1-24,77.0,68.8,61.6,65.3,59.8,54.3,87,73,55,30.08,30.00,12,2,13,0.00
2013-1-25,76.1,68.5,60.7,64.7,60.4,53.7,87,76,62,30.08,29.98,13,2,0,0.00
2013-1-26,76.5,68.0,60.5,64.8,59.8,55.1,88,76,60,30.06,29.93,12,2,0,0.00
2013-1-27,77.2,68.3,59.3,64.3,58.6,53.4,83,72,55,30.03,29.89,13,2,0,0.00
2013-1-28,76.3,70.0,63.2,64.5,59.9,54.6,77,71,59,30.00,29.88,12,2,0,0.00
2013-1-29,74.5,68.8,63.2,66.8,62.6,56.9,91,81,69,30.03,29.92,9,1,0,0.00
2013-1-30,75.7,69.8,64.9,68.2,64.9,61.1,96,85,71,30.07,29.98,12,2,0,0.26
2013-1-31,78.0,70.5,63.5,67.7,62.7,57.1,87,77,63,30.08,29.97,27,4,27,0.00
2013-2-1,78.0,70.9,65.9,62.7,60.0,51.6,83,69,50,30.08,29.95,32,11,32,0.00
2013-2-2,80.5,69.4,61.5,63.9,56.2,45.5,76,63,49,30.14,30.02,25,6,25,0.00
2013-2-3,79.8,68.2,61.7,62.5,56.8,54.1,78,68,45,30.17,30.02,24,6,24,0.00
2013-2-4,77.2,68.6,63.7,64.3,58.2,53.9,83,70,53,30.09,30.00,28,8,28,0.00
2013-2-5,76.9,69.6,64.2,61.5,58.5,54.1,80,69,54,30.07,29.96,28,7,28,0.00
2013-2-6,78.4,70.4,63.2,63.7,59.0,52.7,80,68,53,30.07,29.96,22,4,22,0.00
2013-2-7,77.5,71.3,66.1,67.9,62.0,56.8,82,73,63,30.11,29.96,21,5,21,0.04
2013-2-8,80.1,71.0,62.5,65.8,60.9,53.6,82,71,49,30.13,29.99,20,4,20,0.00
2013-2-9,79.2,69.7,60.2,63.3,59.2,49.7,78,70,55,30.11,29.99,26,7,26,0.00
2013-2-10,78.8,71.0,64.7,62.7,59.6,56.8,81,68,49,30.16,30.00,28,8,30,0.00
2013-2-11,79.3,70.3,63.2,64.0,59.1,52.4,80,69,43,30.18,30.05,25,7,25,0.00
2013-2-12,78.3,68.5,63.9,60.5,58.1,56.2,81,70,50,30.15,30.03,26,8,26,0.00
2013-2-13,76.0,67.1,61.8,57.7,54.6,50.8,78,65,50,30.11,29.98,24,7,24,0.00
2013-2-14,76.5,67.5,60.1,58.3,56.1,50.3,80,68,51,30.09,29.96,24,8,24,0.00
2013-2-15,78.7,69.5,60.2,63.7,58.9,52.4,78,70,56,30.08,29.93,31,7,31,0.00
2013-2-16,75.8,69.6,65.9,61.1,58.5,55.9,78,68,55,30.07,29.92,39,13,39,0.00
2013-2-17,79.2,70.2,65.0,61.9,56.2,48.3,73,62,46,30.10,29.93,37,11,40,0.00
2013-2-18,75.0,68.6,64.6,61.6,57.2,51.5,76,67,53,30.09,29.93,40,11,40,0.00
2013-2-19,75.8,68.5,64.0,60.6,57.4,54.9,77,68,54,30.11,29.95,36,11,36,0.00
2013-2-20,77.2,69.9,63.8,61.8,59.1,54.2,79,69,55,30.11,29.99,34,10,34,0.00
2013-2-21,80.2,71.2,64.4,65.5,61.1,56.9,81,71,57,30.11,29.99,26,7,26,0.00
2013-2-22,81.0,71.7,66.2,62.4,58.7,56.0,76,64,49,30.09,29.96,30,8,30,0.00
2013-2-23,79.8,70.7,66.2,64.2,59.0,56.8,80,67,49,30.10,29.97,28,8,28,0.00
2013-2-24,77.4,69.6,65.0,62.5,59.3,55.5,78,70,56,30.08,29.94,30,10,30,0.00
2013-2-25,79.2,69.8,63.8,62.4,59.3,56.8,79,70,53,30.09,29.97,33,11,33,0.00
2013-2-26,79.0,70.0,64.3,62.2,56.6,51.6,75,63,47,30.12,29.99,34,10,34,0.00
2013-2-27,77.5,69.4,64.5,60.4,57.5,52.8,76,66,51,30.15,30.03,27,10,27,0.00
2013-2-28,78.3,69.0,62.1,59.8,55.6,48.9,76,63,46,30.16,30.04,28,9,28,0.00
2013-3-1,77.2,68.9,63.8,58.0,54.8,49.9,76,62,43,30.15,29.98,41,12,41,0.00
2013-3-2,76.8,68.9,63.7,61.4,56.9,50.8,78,66,50,30.14,30.00,30,10,31,0.00
2013-3-3,78.7,69.1,64.2,59.0,57.5,55.6,78,68,48,30.15,30.04,27,9,27,0.00
2013-3-4,78.5,69.0,62.8,59.0,56.4,52.1,78,65,47,30.15,30.06,27,9,27,0.00
2013-3-5,78.8,69.1,61.3,60.9,56.8,50.9,78,66,46,30.14,30.03,20,6,20,0.00
2013-3-6,78.5,69.2,60.8,63.1,59.0,49.8,81,70,53,30.14,30.04,19,5,19,0.00
2013-3-7,77.0,68.6,60.0,64.1,59.8,50.9,90,74,55,30.09,29.98,14,3,14,0.06
2013-3-8,76.5,68.4,57.6,63.4,59.4,52.1,91,74,54,30.06,29.90,14,2,14,0.00
2013-3-9,81.7,70.7,59.2,65.4,56.8,48.1,78,63,42,29.99,29.85,28,5,28,0.00
2013-3-10,82.8,71.9,62.2,68.6,64.2,54.5,93,78,51,30.02,29.85,26,6,26,0.00
2013-3-11,77.5,70.1,62.4,67.0,63.1,54.1,94,79,62,30.07,29.95,14,3,14,0.11
2013-3-12,75.9,70.1,65.4,67.1,63.8,61.0,94,81,63,30.07,29.96,14,2,14,0.02
2013-3-13,79.7,70.7,63.7,65.0,61.5,56.9,84,73,58,30.08,29.96,16,5,16,0.00
2013-3-14,77.8,70.1,61.9,64.1,61.1,55.6,83,73,58,30.08,29.97,14,2,14,0.00
2013-3-15,72.8,68.6,65.6,67.5,64.3,61.1,95,86,75,30.02,29.92,14,2,14,0.07
2013-3-16,68.5,64.9,62.0,65.0,62.1,58.0,96,91,84,30.03,29.93,9,1,0,0.74
2013-3-17,73.2,67.0,62.1,62.1,58.5,55.1,89,75,56,30.04,29.94,12,2,12,0.00
2013-3-18,77.5,69.0,61.5,59.8,54.7,48.5,83,63,38,30.05,29.92,14,4,14,0.00
2013-3-19,77.3,69.1,59.9,60.6,56.2,50.3,77,64,48,30.04,29.95,14,3,14,0.00
2013-3-20,78.7,70.6,62.2,65.5,59.3,53.1,82,68,48,30.09,29.98,17,3,17,0.00
2013-3-21,79.8,72.4,64.8,68.6,62.8,57.1,89,72,59,30.07,29.95,15,2,15,0.00
2013-3-22,76.3,70.8,64.0,67.1,62.8,56.6,87,76,64,30.06,29.93,11,2,0,0.00
2013-3-23,79.2,70.9,64.7,67.9,62.7,58.3,86,76,64,30.03,29.90,16,3,16,0.00
2013-3-24,76.8,71.6,67.2,66.9,63.8,58.1,88,77,63,30.05,29.91,17,3,17,0.00
2013-3-25,79.3,71.6,61.9,67.7,63.8,57.3,89,77,65,30.04,29.90,14,3,17,0.00
2013-3-26,78.3,72.1,66.4,68.2,63.9,60.3,84,76,62,30.04,29.92,14,4,14,0.00
2013-3-27,79.0,71.0,64.5,67.1,61.4,55.4,84,72,56,30.01,29.90,22,5,22,0.00
2013-3-28,79.7,71.9,64.8,63.4,59.9,55.6,86,67,46,30.03,29.90,25,6,25,0.00
2013-3-29,80.8,69.4,65.6,67.2,62.7,58.4,94,80,51,30.05,29.95,21,4,21,0.18
2013-3-30,75.4,69.2,62.6,66.8,63.3,59.7,91,82,65,30.08,29.96,13,2,0,0.00
2013-3-31,79.2,70.0,63.5,62.3,59.8,57.5,82,71,54,30.03,29.94,16,3,16,0.00
2013-4-1,74.0,66.8,59.1,58.1,54.9,49.6,81,67,46,30.05,29.93,18,3,18,0.00
2013-4-2,75.0,67.2,58.7,59.4,55.9,51.6,80,68,50,30.08,29.97,18,4,18,0.00
2013-4-3,77.2,69.6,61.1,60.1,57.2,52.5,82,66,50,30.09,29.98,15,4,15,0.00
2013-4-4,79.7,70.8,60.2,61.0,56.1,50.5,77,61,42,30.10,29.98,12,3,0,0.00
2013-4-5,83.0,72.0,65.1,67.1,62.1,56.4,80,71,57,30.11,30.01,17,3,17,0.00
2013-4-6,80.9,72.1,62.9,67.7,63.1,56.3,89,74,60,30.16,30.02,9,2,12,0.00
2013-4-7,78.5,73.2,66.9,69.0,64.5,59.4,84,74,65,30.16,30.04,18,4,18,0.00
2013-4-8,81.3,72.5,65.1,66.4,62.0,56.5,86,70,49,30.09,29.96,17,4,17,0.00
2013-4-9,80.1,72.7,65.2,67.7,64.0,55.6,87,75,57,30.07,29.93,14,3,14,0.03
2013-4-10,81.3,73.2,62.1,67.8,64.0,56.3,89,74,56,30.06,29.93,17,3,17,0.00
2013-4-11,80.2,73.6,67.5,68.1,65.4,61.4,90,76,60,30.03,29.91,13,2,13,0.02
2013-4-12,78.6,72.5,64.7,68.0,64.5,57.1,85,76,67,30.00,29.90,15,2,15,0.00
2013-4-13,88.7,73.1,66.2,68.7,63.6,54.8,85,73,34,29.99,29.84,20,2,20,0.00
2013-4-14,79.5,72.4,64.3,68.3,63.9,57.3,87,75,58,29.99,29.88,15,3,15,0.00
2013-4-15,79.8,72.9,63.4,68.1,63.5,58.1,87,73,59,30.05,29.94,14,2,14,0.00
2013-4-16,77.4,72.3,65.1,69.7,65.3,55.1,90,79,65,30.11,29.99,14,3,14,0.00
2013-4-17,83.5,73.6,66.6,68.0,61.9,55.1,81,68,42,30.12,30.01,21,5,21,0.00
2013-4-18,82.1,71.9,67.0,68.8,62.9,58.3,92,74,50,30.12,30.02,24,6,24,0.14
2013-4-19,78.9,71.6,63.1,68.6,62.4,54.6,81,73,54,30.10,30.01,18,4,18,0.00
2013-4-20,79.3,72.1,65.4,68.5,64.3,58.5,87,77,64,30.09,30.02,14,4,14,0.00
2013-4-21,79.7,71.9,62.4,68.0,63.9,57.9,89,77,57,30.06,29.97,14,2,14,0.00
2013-4-22,80.2,72.3,62.9,68.3,64.1,57.9,88,76,60,30.07,29.97,16,2,16,0.00
2013-4-23,81.3,73.9,64.5,68.6,65.1,59.8,90,75,54,30.08,29.98,16,3,16,0.00
2013-4-24,84.5,74.6,64.6,69.5,65.9,57.5,92,75,56,30.08,29.95,18,3,18,0.00
2013-4-25,84.3,73.8,66.9,68.6,62.5,57.8,77,68,50,30.06,29.95,24,6,24,0.00
2013-4-26,84.0,73.6,67.6,64.2,61.2,58.3,78,66,47,30.03,29.94,24,7,24,0.00
2013-4-27,81.5,73.5,65.7,65.3,61.5,55.6,78,67,53,30.05,29.94,15,4,15,0.00
2013-4-28,80.7,73.3,65.4,67.4,62.3,56.1,78,69,57,30.04,29.92,15,3,15,0.00
2013-4-29,80.5,73.4,66.4,69.1,65.2,59.6,88,76,63,30.00,29.91,16,3,16,0.00
2013-4-30,82.8,74.0,64.4,68.2,63.1,55.6,78,69,55,30.02,29.92,17,4,17,0.00
2013-5-1,80.5,72.4,64.5,65.6,61.5,54.8,79,69,50,30.07,29.97,18,5,18,0.00
2013-5-2,81.0,71.7,65.4,68.9,64.0,58.1,90,77,58,30.08,30.01,15,4,15,0.39
2013-5-3,80.8,70.8,65.3,69.4,63.8,56.6,93,79,55,30.07,29.98,16,3,16,0.29
2013-5-4,76.0,70.8,64.7,68.8,65.9,60.1,94,85,70,30.02,29.93,15,3,15,0.08
2013-5-5,78.0,71.2,65.6,68.3,66.3,64.1,96,85,69,29.99,29.88,13,3,0,0.36
2013-5-6,78.8,72.5,67.7,69.1,67.1,64.2,94,84,65,29.99,29.88,15,2,15,0.00
2013-5-7,81.0,73.8,64.9,68.0,65.8,62.3,93,77,62,29.99,29.91,13,2,13,0.00
2013-5-8,81.3,74.3,64.7,68.7,65.3,60.8,88,74,58,30.03,29.92,14,2,14,0.00
2013-5-9,82.0,75.1,66.2,69.6,66.2,60.9,87,75,58,30.07,29.96,16,2,16,0.00
2013-5-10,83.7,76.7,68.6,71.8,68.5,62.8,91,76,65,30.08,29.97,16,3,16,0.00
2013-5-11,80.8,75.5,69.6,72.0,69.3,65.7,94,81,72,30.07,29.97,16,3,16,0.00
2013-5-12,86.3,76.6,71.2,71.6,67.1,63.8,84,73,55,30.04,29.95,24,6,24,0.00
2013-5-13,82.3,75.8,69.3,71.1,66.6,59.3,87,74,62,30.04,29.96,17,4,17,0.00
2013-5-14,84.7,76.2,68.3,69.5,62.7,55.6,76,63,51,30.08,29.99,27,8,27,0.00
2013-5-15,85.7,75.4,68.0,70.4,63.6,58.3,84,68,49,30.11,30.01,23,6,23,0.01
2013-5-16,85.8,75.2,66.9,68.4,61.9,55.5,76,64,44,30.10,30.00,22,7,22,0.00
2013-5-17,84.8,74.3,66.8,66.5,62.1,55.9,78,66,49,30.06,29.96,23,6,23,0.00
2013-5-18,74.8,68.8,64.9,68.1,62.4,56.8,91,80,65,30.02,29.97,11,2,12,0.09
2013-5-19,78.4,73.2,68.3,69.2,67.7,65.9,94,83,71,30.00,29.90,15,3,15,0.02
2013-5-20,77.3,71.6,65.2,68.3,65.6,62.6,92,82,67,30.01,29.90,15,2,15,0.00
2013-5-21,77.3,68.0,63.0,66.7,62.2,59.7,91,82,65,30.03,29.95,11,2,12,0.00
2013-5-22,83.0,78.4,72.5,69.5,65.8,63.2,79,66,56,30.04,29.94,14,3,14,0.00
2013-5-23,89.2,76.7,66.4,70.1,65.4,60.9,86,69,46,30.03,29.92,20,4,20,0.00
2013-5-24,84.8,75.5,68.9,69.7,63.9,61.4,82,68,52,30.04,29.95,27,6,27,0.00
2013-5-25,83.8,74.9,69.3,69.5,64.9,61.0,78,71,56,30.03,29.94,23,7,23,0.00
2013-5-26,84.8,75.3,70.2,70.2,63.7,59.2,77,68,52,30.08,29.96,25,7,25,0.00
2013-5-27,82.8,75.4,69.7,70.0,64.0,61.6,80,68,51,30.08,29.97,29,6,29,0.00
2013-5-28,82.8,75.0,66.4,70.7,66.3,59.8,91,75,59,30.09,30.00,15,2,15,0.25
2013-5-29,80.2,74.3,69.0,70.9,67.8,61.2,94,81,71,30.07,29.97,20,3,20,0.01
2013-5-30,81.5,74.4,67.4,70.6,65.0,59.4,80,73,61,30.04,29.91,19,4,19,0.00
2013-5-31,80.7,73.8,65.7,71.6,66.6,59.1,90,78,67,30.03,29.93,16,3,16,0.01
2013-6-1,87.0,76.9,68.9,71.5,66.3,62.1,88,70,54,30.07,29.92,30,6,30,0.00
2013-6-2,84.8,75.7,68.6,71.7,65.3,60.5,81,71,59,30.06,29.95,31,8,31,0.00
2013-6-3,85.1,76.2,69.2,66.6,62.9,58.9,76,64,51,30.06,29.94,25,9,25,0.00
2013-6-4,84.0,74.9,69.8,69.3,63.5,58.9,76,68,55,30.01,29.93,28,8,28,0.00
2013-6-5,85.3,75.4,68.1,66.1,62.2,56.3,77,64,49,30.03,29.91,26,8,26,0.00
2013-6-6,82.3,74.6,68.3,65.5,60.6,53.8,76,62,52,30.02,29.89,27,9,27,0.00
2013-6-7,83.8,74.3,66.2,67.3,61.6,55.2,75,65,55,30.03,29.91,25,8,25,0.00
2013-6-8,85.5,75.2,68.6,67.6,62.1,58.4,77,64,48,30.04,29.93,25,7,25,0.00
2013-6-9,87.3,76.4,68.9,65.7,62.7,59.2,77,64,47,30.05,29.97,25,7,25,0.00
2013-6-10,85.1,75.1,68.0,68.5,62.5,59.9,77,66,49,30.03,29.95,24,7,24,0.00
2013-6-11,82.5,74.8,69.9,69.1,64.1,59.9,78,70,55,30.02,29.94,23,6,23,0.00
2013-6-12,84.3,75.6,67.0,68.0,62.8,56.3,75,65,49,30.04,29.90,34,8,34,0.00
2013-6-13,84.9,76.0,67.5,69.1,62.5,58.5,77,64,49,30.07,29.99,28,8,28,0.00
2013-6-14,83.5,74.6,66.9,66.1,62.1,58.5,79,66,51,30.05,29.94,26,7,26,0.00
2013-6-15,87.3,75.9,66.5,63.8,61.3,57.4,78,62,41,30.00,29.88,22,7,22,0.00
2013-6-16,84.5,74.8,67.2,68.6,62.8,56.6,78,67,48,30.00,29.91,21,6,21,0.00
2013-6-17,87.3,76.8,69.3,68.5,63.2,58.8,79,64,44,30.06,29.94,23,7,23,0.00
2013-6-18,82.0,74.2,66.5,69.2,64.0,58.6,79,71,56,30.05,29.97,17,4,17,0.00
2013-6-19,83.5,75.7,69.0,68.5,63.1,58.3,77,65,48,30.05,29.96,22,6,22,0.00
2013-6-20,82.4,74.9,69.0,68.3,63.6,57.8,77,68,59,30.04,29.95,18,4,18,0.00
2013-6-21,83.7,73.7,67.7,68.5,63.7,56.7,85,71,57,30.03,29.93,25,6,26,0.02
2013-6-22,86.0,75.4,68.0,67.4,63.4,59.3,78,67,51,30.06,29.95,25,8,25,0.00
2013-6-23,88.3,76.4,70.5,69.1,64.1,60.1,77,67,46,30.09,29.99,24,6,24,0.00
2013-6-24,83.3,74.6,68.7,68.5,63.0,59.9,78,68,51,30.07,30.00,20,6,20,0.00
2013-6-25,81.0,74.0,67.0,69.0,63.6,57.1,78,70,59,30.06,29.97,16,4,16,0.00
2013-6-26,84.3,75.2,64.9,68.5,63.6,56.8,80,68,52,30.06,29.93,19,5,19,0.00
2013-6-27,83.7,75.2,67.8,64.4,62.0,56.8,81,65,44,30.01,29.91,26,6,26,0.00
2013-6-28,83.5,73.1,65.1,66.3,59.8,52.9,75,64,46,29.99,29.91,23,5,23,0.00
2013-6-29,84.8,74.9,65.8,66.4,61.8,57.2,78,65,45,30.00,29.89,17,5,17,0.00
2013-6-30,83.5,75.6,67.7,69.7,64.0,57.9,81,68,50,30.02,29.92,22,5,22,0.00
2013-7-1,88.2,76.3,69.5,69.2,64.7,62.6,81,69,49,29.99,29.90,21,7,21,0.00
2013-7-2,83.7,74.9,67.3,69.3,64.3,60.4,83,70,55,29.98,29.88,19,4,19,0.01
2013-7-3,83.5,74.9,69.9,70.0,65.5,62.4,80,73,59,29.99,29.90,15,4,15,0.21
2013-7-4,82.8,74.9,66.8,70.7,65.9,61.5,91,74,56,30.02,29.93,14,3,15,0.11
2013-7-5,84.0,75.7,66.7,70.1,65.4,59.3,80,71,56,30.03,29.92,15,4,15,0.00
2013-7-6,80.5,74.8,69.9,71.1,67.2,63.3,83,77,70,30.02,29.95,15,3,15,0.00
2013-7-7,81.3,75.0,67.8,70.9,66.8,59.4,89,76,49,29.99,29.88,16,3,16,0.00
2013-7-8,83.0,75.8,67.3,71.0,67.1,58.6,86,75,57,30.01,29.90,16,4,16,0.00
2013-7-9,83.3,76.0,68.1,71.4,65.7,61.0,80,71,57,30.09,29.97,24,4,24,0.00
2013-7-10,85.5,76.6,69.6,66.4,62.6,59.2,75,63,45,30.09,29.98,34,8,34,0.00
2013-7-11,84.1,75.9,69.4,66.6,63.5,60.3,76,66,51,30.06,29.95,31,9,31,0.00
2013-7-12,87.0,75.7,66.7,67.5,62.5,58.8,81,65,41,30.04,29.93,27,6,27,0.00
2013-7-13,84.8,74.9,67.7,69.1,62.5,57.8,79,66,50,29.99,29.90,22,6,22,0.00
2013-7-14,82.8,74.4,67.0,67.8,62.3,53.9,84,67,46,29.99,29.89,18,4,18,0.02
2013-7-15,82.5,73.7,67.5,68.3,64.7,60.1,88,74,55,30.02,29.93,15,3,15,0.01
2013-7-16,85.0,74.9,68.0,68.9,64.6,60.6,79,71,51,30.00,29.90,21,5,21,0.00
2013-7-17,86.3,75.8,69.9,68.5,63.4,55.6,80,66,38,29.98,29.90,21,6,21,0.00
2013-7-18,84.5,76.9,68.8,70.4,65.1,61.3,80,68,53,30.03,29.92,19,5,19,0.00
2013-7-19,81.8,75.7,68.5,70.9,66.1,61.7,81,72,60,30.05,29.96,16,4,16,0.00
2013-7-20,83.6,75.8,68.8,69.8,63.6,58.2,78,67,48,30.05,29.94,24,6,24,0.00
2013-7-21,86.3,76.5,69.2,70.2,65.5,61.1,88,70,52,30.02,29.90,22,5,22,0.00
2013-7-22,83.8,77.1,69.4,72.8,68.7,63.9,87,76,57,30.00,29.91,14,2,14,0.00
2013-7-23,84.7,77.9,69.7,73.0,70.5,65.7,93,79,61,30.00,29.92,14,2,14,0.00
2013-7-24,87.7,77.0,71.1,72.6,66.2,61.6,93,70,51,29.99,29.85,20,5,20,0.00
2013-7-25,86.5,76.7,69.0,67.2,63.6,58.1,78,65,46,29.97,29.86,22,6,22,0.00
2013-7-26,84.5,75.5,66.7,68.2,63.7,58.1,78,67,52,30.02,29.92,19,4,20,0.00
2013-7-27,87.0,76.8,69.9,67.0,63.5,59.8,77,64,50,30.01,29.91,22,7,22,0.00
2013-7-28,90.3,78.4,69.6,69.3,65.0,60.1,80,65,46,29.99,29.85,21,5,21,0.00
2013-7-29,80.1,74.3,72.0,73.3,70.5,67.7,97,88,77,29.98,29.80,18,3,18,0.55
2013-7-30,85.5,77.9,73.0,74.5,70.8,64.7,91,79,66,30.06,29.94,16,3,16,0.00
2013-7-31,87.5,78.1,72.9,70.9,32.6,-99.9,87,66,47,30.06,29.87,36,9,36,0.00
2013-8-1,86.5,77.5,71.7,67.5,17.6,-99.9,77,61,49,30.04,29.93,27,9,27,0.00
2013-8-2,86.3,76.0,67.8,68.7,64.1,59.4,77,67,50,30.02,29.92,24,6,24,0.00
2013-8-3,85.7,76.2,68.4,67.1,64.2,61.1,78,67,51,30.01,29.92,21,7,23,0.00
2013-8-4,87.5,76.0,68.3,68.5,65.1,61.1,80,70,51,30.01,29.91,19,6,19,0.05
2013-8-5,83.2,76.1,68.8,71.2,66.2,61.3,82,72,60,30.00,29.91,19,6,21,0.00
2013-8-6,86.5,76.4,69.4,71.0,65.4,59.9,83,70,52,30.01,29.92,20,6,20,0.00
2013-8-7,84.8,74.3,67.8,66.4,62.3,58.6,79,67,48,30.04,29.94,20,7,20,0.00
2013-8-8,83.5,75.7,64.9,69.2,64.2,56.0,80,68,52,30.04,29.96,17,5,20,0.00
2013-8-9,88.5,80.8,72.9,72.0,68.4,62.1,85,67,52,30.03,29.88,26,4,26,0.00
2013-8-10,82.0,77.5,72.9,73.9,70.3,65.3,86,79,71,29.99,29.90,19,3,19,0.00
2013-8-11,88.0,78.8,74.1,73.3,68.3,65.4,81,71,55,30.00,29.91,24,8,24,0.00
2013-8-12,86.7,77.7,72.6,70.9,66.2,63.2,80,68,53,30.02,29.92,24,8,24,0.00
2013-8-13,85.6,76.4,70.7,69.1,65.1,62.4,79,69,52,29.99,29.89,19,8,29,0.00
2013-8-14,85.5,76.6,70.7,68.3,64.9,61.5,79,68,54,30.00,29.89,27,8,27,0.00
2013-8-15,86.0,76.8,69.2,65.9,64.3,61.4,81,66,47,30.00,29.89,30,7,30,0.00
2013-8-16,85.8,77.0,68.0,70.3,66.6,59.1,79,71,59,30.00,29.89,28,9,28,0.00
2013-8-17,86.8,77.2,71.6,67.7,64.1,61.1,80,65,44,29.99,29.89,27,8,27,0.00
2013-8-18,87.9,76.5,67.8,68.3,61.0,55.6,76,60,38,30.01,29.90,22,5,23,0.00
2013-8-19,82.8,75.1,65.8,67.6,63.2,51.1,78,67,50,30.01,29.93,18,5,18,0.00
2013-8-20,81.9,75.8,68.0,71.2,66.3,58.6,87,73,54,29.99,29.90,14,3,14,0.00
2013-8-21,84.0,76.4,67.3,70.8,66.7,58.1,88,72,55,29.98,29.87,15,4,15,0.00
2013-8-22,84.2,77.5,70.9,71.4,67.3,63.0,85,71,58,29.97,29.87,16,4,16,0.00
2013-8-23,85.9,77.7,70.1,69.6,65.7,61.8,77,67,50,29.97,29.88,14,5,20,0.00
2013-8-24,88.6,76.8,69.6,68.0,64.4,60.8,79,67,48,30.01,29.88,23,7,23,0.00
2013-8-25,87.0,77.5,70.8,69.8,65.8,59.7,78,68,52,30.04,29.92,26,7,26,0.00
2013-8-26,84.0,75.5,70.0,66.5,64.4,61.3,77,69,54,30.05,30.00,24,7,24,0.00
2013-9-11,85.8,77.5,74.0,67.8,65.3,62.8,77,67,50,30.01,29.91,20,6,24,0.00
2013-9-12,89.8,78.3,69.7,70.8,66.7,62.3,79,69,50,30.00,29.84,21,3,21,0.00
2013-9-13,87.8,80.3,73.1,71.7,67.6,64.2,76,66,48,29.90,29.81,28,6,28,0.00
2013-9-14,83.4,75.4,71.4,71.6,68.0,63.8,89,78,65,29.93,29.83,18,4,18,0.00
2013-9-15,87.2,77.3,70.1,69.5,64.6,60.3,80,66,48,29.95,29.84,23,5,23,0.00
2013-9-16,87.7,76.7,68.5,69.9,64.0,58.0,75,66,43,30.00,29.90,27,5,27,0.00
2013-9-17,83.0,76.6,70.6,70.5,66.2,60.4,79,70,58,29.99,29.88,15,3,25,0.00
2013-9-18,88.7,77.7,69.6,67.4,62.5,57.3,76,60,40,29.98,29.87,32,5,32,0.00
2013-9-19,87.8,77.6,70.4,68.2,64.0,61.6,78,64,47,30.01,29.91,26,5,26,0.00
2013-9-20,86.7,77.1,70.2,66.7,61.6,57.1,72,60,41,30.00,29.91,26,7,26,0.00
2013-9-21,86.2,75.3,69.9,68.0,63.8,57.1,78,68,47,30.01,29.90,26,6,26,0.00
2013-9-22,86.5,75.7,66.7,68.4,62.7,56.3,77,65,47,30.01,29.89,23,5,23,0.00
2013-9-23,87.3,76.9,67.4,66.8,62.6,57.1,78,63,41,29.98,29.87,25,6,25,0.00
2013-9-24,83.8,74.4,67.2,71.4,64.0,56.6,90,70,56,29.99,29.89,19,3,19,0.06
2013-9-25,85.8,74.5,67.3,69.8,64.3,59.0,81,71,52,30.02,29.92,17,4,17,0.00
2013-9-26,83.3,73.2,65.7,70.9,65.4,60.0,92,77,56,29.98,29.91,18,4,18,0.04
2013-9-27,84.1,74.9,65.7,69.4,64.3,59.8,89,70,54,30.06,29.93,24,4,24,0.00
2013-9-28,86.5,76.5,71.0,66.4,63.3,59.1,75,64,47,30.05,29.90,30,7,30,0.00
2013-9-29,84.8,76.4,70.3,70.1,64.0,60.1,76,66,48,30.01,29.89,27,6,27,0.00
2013-9-30,84.0,75.8,66.7,69.1,64.7,58.6,78,69,58,30.02,29.91,18,3,18,0.00
2013-10-1,82.7,76.8,70.9,71.0,65.9,61.8,77,69,56,29.98,29.88,16,4,16,0.00
2013-10-2,84.1,76.5,68.6,72.6,65.7,60.0,84,70,56,29.96,29.86,12,4,16,0.00
2013-10-16,81.0,74.2,68.4,70.8,68.7,64.4,91,83,70,29.98,29.87,11,2,0,0.18
2013-10-17,84.0,74.8,65.1,71.1,66.0,61.6,91,75,55,29.98,29.90,14,2,14,0.00
2013-10-18,80.8,73.8,67.3,71.2,65.3,57.3,90,75,63,29.97,29.86,14,2,14,0.00
2013-10-19,81.3,73.8,66.0,71.7,66.9,60.3,90,80,65,29.92,29.83,12,2,0,0.00
2013-10-20,81.3,74.3,67.5,70.2,66.9,63.0,89,78,63,29.95,29.86,13,2,13,0.00
2013-10-21,83.5,74.3,65.1,66.9,63.7,60.5,87,71,52,29.98,29.86,12,2,12,0.00
2013-10-22,83.6,75.4,66.3,66.9,63.5,57.8,81,67,53,29.99,29.87,16,4,16,0.00
2013-10-23,83.5,75.0,66.4,69.8,63.7,56.2,78,68,55,30.00,29.89,17,5,17,0.00
2013-10-24,83.5,75.6,67.9,69.6,65.6,60.1,81,72,55,29.97,29.86,16,3,16,0.00
2013-10-25,83.3,76.1,68.8,70.3,66.2,59.8,83,72,57,30.00,29.89,14,3,14,0.00
2013-10-26,84.1,75.9,68.1,70.6,66.3,62.0,85,73,53,30.03,29.93,10,2,13,0.00
2013-10-27,83.8,75.9,68.3,72.0,67.1,61.2,87,75,63,30.03,29.92,13,2,13,0.00
2013-10-28,84.3,75.6,67.4,71.8,64.6,58.9,84,69,55,30.03,29.89,22,4,22,0.00
2013-10-29,84.2,74.7,67.4,67.9,62.4,56.6,78,66,47,30.05,29.92,18,4,18,0.00
2013-10-30,81.8,74.2,64.8,66.5,61.7,53.3,79,65,53,30.07,29.97,18,4,18,0.00
2013-10-31,84.3,75.2,68.7,69.0,64.5,59.8,79,70,54,30.09,29.96,21,4,21,0.00
2013-11-1,84.0,75.5,69.4,67.6,64.4,61.3,80,69,57,30.04,29.92,25,7,25,0.00
2013-11-2,82.5,75.1,69.2,66.7,63.3,57.3,77,67,56,30.03,29.92,26,7,26,0.00
2013-11-3,82.0,74.5,70.5,65.0,61.9,56.4,78,65,50,30.03,29.89,27,7,27,0.00
2013-11-4,83.3,74.8,69.6,69.8,64.8,62.0,83,72,55,30.02,29.91,25,4,25,0.00
2013-11-5,80.5,73.8,68.1,69.5,65.8,61.1,86,76,66,29.99,29.89,10,3,0,0.00
2013-11-6,83.2,75.1,68.0,70.5,66.4,58.6,89,75,59,29.97,29.85,14,3,14,0.00
2013-11-7,81.8,74.9,67.7,70.9,66.6,59.1,88,76,67,29.97,29.86,12,3,12,0.00
2013-11-8,82.7,75.5,70.0,70.8,66.4,61.2,81,74,64,29.97,29.83,18,3,18,0.00
2013-11-9,82.0,74.6,66.1,68.6,63.0,51.9,81,68,52,29.91,29.80,14,3,14,0.00
2013-11-10,82.8,73.8,67.8,69.1,63.3,59.2,90,71,45,29.93,29.78,24,5,24,0.03
2013-11-11,76.7,71.2,68.2,63.2,61.2,58.7,81,71,58,29.95,29.84,30,8,30,0.00
2013-11-12,79.3,71.7,66.4,64.0,60.3,56.6,76,68,50,30.01,29.87,17,4,17,0.00
2013-11-13,81.0,73.8,67.6,66.6,63.4,61.3,85,71,55,29.99,29.88,17,4,17,0.01
2013-11-14,80.7,72.5,67.5,71.9,68.0,63.7,93,86,73,30.01,29.89,11,1,0,0.06
2013-11-15,82.4,74.9,68.6,72.3,67.5,61.9,92,78,65,30.04,29.94,19,3,19,0.00
2013-11-16,80.2,74.2,67.3,69.7,65.4,59.8,83,74,68,30.04,29.91,20,3,20,0.00
2013-11-17,80.3,73.4,66.6,70.1,65.6,59.6,87,77,63,30.00,29.89,14,2,14,0.00
2013-11-18,81.7,73.8,65.4,68.6,63.7,59.9,85,71,56,30.00,29.86,12,2,0,0.00
2013-11-19,80.3,72.1,62.9,69.7,63.3,56.3,85,74,58,30.00,29.86,12,2,0,0.00
2013-11-20,80.3,72.3,64.6,71.1,64.9,55.3,90,78,59,30.00,29.89,13,2,13,0.00
2013-11-21,78.8,72.9,66.5,70.8,65.6,58.2,88,78,64,30.03,29.90,12,1,12,0.00
2013-11-22,83.4,72.2,62.4,69.6,62.3,55.1,85,72,53,30.07,29.91,18,3,18,0.00
2013-11-23,83.6,72.8,67.0,65.8,61.7,55.4,79,69,54,30.00,29.86,20,5,20,0.00
2013-11-24,82.7,72.2,64.0,62.7,59.2,49.9,79,65,44,29.99,29.85,20,5,20,0.00
2013-11-25,80.0,71.6,63.2,64.8,60.8,53.9,79,69,56,30.05,29.92,19,4,19,0.00
2013-11-26,80.7,72.2,62.1,66.3,60.6,52.2,76,67,52,30.09,29.94,15,3,15,0.00
2013-11-27,81.0,73.0,63.4,65.0,60.2,50.8,76,65,50,30.07,29.92,15,4,15,0.00
2013-11-28,79.5,71.1,62.7,65.8,60.5,55.0,83,70,54,30.03,29.89,13,2,13,0.00
2013-11-29,80.0,71.0,63.1,68.7,62.3,54.9,84,75,58,29.99,29.87,15,2,15,0.00
2013-11-30,80.2,56.0,67.7,69.6,49.5,60.6,91,57,58,29.98,29.91,11,2,17,0.06
2013-12-1,84.1,77.1,69.9,70.2,13.2,-99.9,89,72,57,29.99,29.85,16,4,14,0.00
2013-12-2,77.5,72.2,64.9,70.7,21.1,-99.9,93,86,74,29.99,29.89,11,2,0,0.20
2013-12-3,80.3,71.3,63.1,67.7,62.8,55.2,89,75,57,29.99,29.86,12,2,0,0.00
2013-12-4,81.0,71.2,62.4,66.5,59.3,50.4,80,67,49,29.99,29.86,16,3,16,0.00
2013-12-5,80.0,70.6,61.9,67.7,61.8,55.2,84,74,59,30.02,29.90,13,2,13,0.00
2013-12-6,79.7,71.2,62.1,65.8,61.2,53.8,86,71,57,30.04,29.89,13,2,13,0.00
2013-12-7,79.2,71.7,62.8,67.6,62.7,54.4,84,74,58,29.99,29.90,12,2,12,0.00
2013-12-8,83.8,74.0,67.4,69.7,64.5,58.1,84,73,56,30.05,29.92,9,1,0,0.00
2013-12-9,80.0,73.6,66.5,72.2,66.6,58.3,87,79,65,30.08,29.96,15,2,15,0.00
2013-12-10,84.7,73.8,67.2,69.3,63.0,55.7,82,70,42,30.03,29.90,29,5,29,0.00
2013-12-11,79.5,71.4,65.0,70.4,61.8,55.9,80,72,60,30.03,29.92,14,3,14,0.00
2013-12-12,78.7,71.7,64.1,67.5,63.1,53.9,86,75,61,30.08,29.92,13,2,0,0.00
2013-12-13,79.8,71.8,64.7,69.2,64.0,56.6,89,77,55,30.06,29.94,14,2,14,0.00
2013-12-14,78.2,70.8,64.6,67.9,62.9,55.5,84,76,66,30.01,29.89,9,3,15,0.00
2013-12-15,77.7,70.7,61.0,67.4,61.2,52.8,84,72,55,29.99,29.85,13,2,13,0.00
2013-12-16,78.5,71.1,63.2,68.5,62.9,58.1,86,76,61,30.00,29.88,13,2,14,0.00
2013-12-17,81.5,71.3,61.4,64.2,58.9,49.8,80,66,35,30.05,29.91,14,4,14,0.00
2013-12-18,79.9,69.9,61.4,63.9,57.2,46.3,82,65,47,30.06,29.93,18,2,18,0.00
2013-12-19,80.0,69.9,60.9,66.0,59.8,52.7,85,71,49,30.06,29.94,12,2,0,0.00
2013-12-20,79.3,70.9,62.0,68.4,62.2,55.1,85,75,55,30.05,29.94,12,2,0,0.00
2013-12-21,78.8,71.7,65.2,67.9,63.1,56.4,90,75,63,30.01,29.92,14,3,14,0.00
2013-12-22,79.4,71.0,61.7,66.8,61.4,55.8,86,72,57,30.02,29.89,13,2,13,0.00
2013-12-23,82.2,72.4,64.3,66.2,61.8,56.5,82,70,51,30.03,29.90,17,4,22,0.00
2013-12-24,80.8,73.3,67.1,65.7,62.1,58.9,82,69,48,30.04,29.92,24,6,24,0.00
2013-12-25,81.8,72.8,64.3,66.3,62.5,52.8,81,70,53,30.04,29.90,19,5,19,0.00
2013-12-26,80.0,72.8,68.0,63.6,61.6,57.6,79,68,53,29.98,29.79,33,8,33,0.00
2013-12-27,81.3,72.9,67.0,66.5,62.8,53.7,80,71,49,29.94,29.79,28,7,28,0.00
2013-12-28,79.9,72.8,68.1,68.6,65.6,61.8,89,79,65,29.94,29.85,10,3,17,0.00
2013-12-29,79.9,71.5,67.3,71.3,66.7,62.6,93,85,71,29.99,29.83,16,3,18,0.12
2013-12-30,80.1,72.0,67.6,69.5,65.7,60.0,91,81,67,29.96,29.89,15,4,21,0.04
2013-12-31,78.3,71.6,66.8,70.2,66.3,61.9,93,84,70,30.00,29.91,18,3,18,0.05
2014-1-1,77.9,70.1,62.4,68.3,64.1,59.1,89,82,69,30.00,29.87,11,1,0,0.00
2014-1-2,78.8,70.0,61.0,69.7,63.9,57.1,91,81,64,29.93,29.77,18,2,18,0.00